When you browse on this site, cookies collect data to enhance your experience and personalize the content and advertising you see.
Visit our Privacy Policy to learn more. By continuing to use the site, you agree to this use of cookies and data.

Hourly Weather Zastinka

Today, 13 July, Monday

Time Temperature Precipitation Wind Pressure Humidity
00:00 +9°C° 0 mm 3 mps 738 mmHg 95%
01:00 +9°C° 0 mm 3 mps 738 mmHg 95%
02:00 +9°C° 0 mm 3 mps 738 mmHg 95%
03:00 +9°C° 0 mm 3 mps 738 mmHg 95%
04:00 +9°C° 0 mm 3 mps 738 mmHg 96%
05:00 +9°C° 0 mm 3 mps 738 mmHg 96%
06:00 +10°C° 0 mm 4 mps 738 mmHg 92%
07:00 +12°C° 0 mm 4 mps 738 mmHg 88%
08:00 +13°C° 0 mm 5 mps 738 mmHg 84%
09:00 +14°C° 0.1 mm 5 mps 738 mmHg 80%
10:00 +15°C° 0.1 mm 5 mps 737 mmHg 75%
11:00 +16°C° 0.1 mm 6 mps 737 mmHg 71%
12:00 +16°C° 0.2 mm 5 mps 737 mmHg 70%
13:00 +17°C° 0.2 mm 5 mps 737 mmHg 68%
14:00 +17°C° 0 mm 5 mps 737 mmHg 68%
15:00 +16°C° 0.2 mm 5 mps 737 mmHg 70%
16:00 +16°C° 0.2 mm 5 mps 737 mmHg 73%
17:00 +16°C° 0.2 mm 5 mps 737 mmHg 75%
18:00 +15°C° 0.1 mm 4 mps 736 mmHg 80%
19:00 +14°C° 0.1 mm 4 mps 736 mmHg 84%
20:00 +13°C° 0.1 mm 3 mps 736 mmHg 89%
21:00 +12°C° 0 mm 3 mps 736 mmHg 90%
22:00 +11°C° 0 mm 3 mps 736 mmHg 92%
23:00 +10°C° 0 mm 3 mps 736 mmHg 94%

Tomorrow, 14 July, Tuesday

Time Temperature Precipitation Wind Pressure Humidity
00:00 +10°C° 0 mm 3 mps 736 mmHg 94%
01:00 +9°C° 0 mm 3 mps 737 mmHg 95%
02:00 +9°C° 0 mm 3 mps 737 mmHg 95%
03:00 +9°C° 0 mm 3 mps 736 mmHg 95%
04:00 +9°C° 0 mm 3 mps 736 mmHg 96%
05:00 +9°C° 0 mm 3 mps 736 mmHg 96%
06:00 +10°C° 0 mm 3 mps 736 mmHg 93%
07:00 +12°C° 0 mm 3 mps 736 mmHg 90%
08:00 +14°C° 0 mm 4 mps 736 mmHg 86%
09:00 +15°C° 0 mm 4 mps 736 mmHg 81%
10:00 +17°C° 0 mm 4 mps 736 mmHg 76%
11:00 +19°C° 0 mm 4 mps 736 mmHg 71%
12:00 +19°C° 0.2 mm 4 mps 735 mmHg 70%
13:00 +19°C° 0.2 mm 4 mps 735 mmHg 69%
14:00 +20°C° 0.2 mm 4 mps 735 mmHg 67%
15:00 +20°C° 0.2 mm 4 mps 735 mmHg 70%
16:00 +20°C° 0.2 mm 3 mps 735 mmHg 72%
17:00 +19°C° 0.2 mm 3 mps 734 mmHg 74%
18:00 +18°C° 0 mm 3 mps 734 mmHg 79%
19:00 +17°C° 0 mm 2 mps 734 mmHg 84%
20:00 +16°C° 0 mm 2 mps 734 mmHg 89%
21:00 +15°C° 0 mm 1 mps 735 mmHg 90%
22:00 +14°C° 0 mm 1 mps 735 mmHg 91%
23:00 +13°C° 0 mm 1 mps 735 mmHg 92%

Day after tomorrow, 15 July, Wednesday

Time Temperature Precipitation Wind Pressure Humidity
00:00 +13°C° 0 mm 1 mps 735 mmHg 92%
01:00 +13°C° 0 mm 1 mps 735 mmHg 92%
02:00 +12°C° 0 mm 1 mps 735 mmHg 93%
03:00 +12°C° 0 mm 1 mps 735 mmHg 93%
04:00 +11°C° 0 mm 0 mps 735 mmHg 93%
05:00 +11°C° 0 mm 0 mps 735 mmHg 93%
06:00 +13°C° 0 mm 0 mps 735 mmHg 89%
07:00 +15°C° 0 mm 1 mps 735 mmHg 85%
08:00 +18°C° 0 mm 1 mps 735 mmHg 81%
09:00 +19°C° 0 mm 1 mps 735 mmHg 77%
10:00 +20°C° 0 mm 1 mps 735 mmHg 73%
11:00 +21°C° 0 mm 1 mps 735 mmHg 69%
12:00 +22°C° 0 mm 1 mps 735 mmHg 67%
13:00 +22°C° 0 mm 1 mps 735 mmHg 65%
14:00 +23°C° 0 mm 1 mps 735 mmHg 63%
15:00 +23°C° 0 mm 1 mps 735 mmHg 62%
16:00 +23°C° 0 mm 1 mps 734 mmHg 62%
17:00 +23°C° 0 mm 1 mps 734 mmHg 61%
18:00 +22°C° 0.1 mm 1 mps 734 mmHg 67%
19:00 +21°C° 0.1 mm 1 mps 734 mmHg 73%
20:00 +19°C° 0.1 mm 1 mps 734 mmHg 79%
21:00 +18°C° 0 mm 1 mps 734 mmHg 82%
22:00 +18°C° 0 mm 1 mps 734 mmHg 84%
23:00 +16°C° 0 mm 1 mps 734 mmHg 87%

16 July, Thursday

Time Temperature Precipitation Wind Pressure Humidity
00:00 +16°C° 0 mm 1 mps 734 mmHg 87%
01:00 +15°C° 0 mm 1 mps 734 mmHg 88%
02:00 +15°C° 0 mm 1 mps 734 mmHg 88%
03:00 +15°C° 0 mm 1 mps 733 mmHg 89%
04:00 +15°C° 0 mm 2 mps 733 mmHg 89%
05:00 +15°C° 0 mm 2 mps 733 mmHg 89%
06:00 +16°C° 0 mm 2 mps 733 mmHg 87%
07:00 +17°C° 0 mm 2 mps 733 mmHg 84%
08:00 +18°C° 0 mm 3 mps 733 mmHg 82%
09:00 +20°C° 0.1 mm 3 mps 733 mmHg 77%
10:00 +21°C° 0.1 mm 3 mps 733 mmHg 73%
11:00 +22°C° 0.1 mm 3 mps 733 mmHg 69%
12:00 +24°C° 0.2 mm 2 mps 733 mmHg 65%
13:00 +25°C° 0.2 mm 2 mps 732 mmHg 61%
14:00 +26°C° 0.2 mm 2 mps 732 mmHg 57%
15:00 +25°C° 0.7 mm 3 mps 732 mmHg 62%
16:00 +24°C° 0.7 mm 3 mps 732 mmHg 67%
17:00 +24°C° 0.7 mm 3 mps 732 mmHg 72%
18:00 +21°C° 0.5 mm 3 mps 732 mmHg 77%
19:00 +20°C° 0.5 mm 3 mps 732 mmHg 82%
20:00 +18°C° 0.5 mm 2 mps 732 mmHg 88%
21:00 +18°C° 0.2 mm 2 mps 732 mmHg 89%
22:00 +17°C° 0.2 mm 2 mps 732 mmHg 90%
23:00 +17°C° 0.2 mm 2 mps 732 mmHg 90%

17 July, Friday

Time Temperature Precipitation Wind Pressure Humidity
00:00 +17°C° 0 mm 2 mps 732 mmHg 91%
01:00 +16°C° 0 mm 2 mps 732 mmHg 92%
02:00 +16°C° 0 mm 2 mps 732 mmHg 93%
03:00 +16°C° 0.1 mm 2 mps 732 mmHg 93%
04:00 +16°C° 0.1 mm 2 mps 732 mmHg 94%
05:00 +16°C° 0.1 mm 2 mps 732 mmHg 95%
06:00 +16°C° 0.5 mm 2 mps 732 mmHg 95%
07:00 +16°C° 0.5 mm 2 mps 732 mmHg 95%
08:00 +16°C° 0.5 mm 2 mps 733 mmHg 95%
09:00 +16°C° 0.6 mm 2 mps 733 mmHg 94%
10:00 +17°C° 0.6 mm 2 mps 733 mmHg 93%
11:00 +17°C° 0.6 mm 2 mps 733 mmHg 92%
12:00 +17°C° 0.5 mm 3 mps 733 mmHg 92%
13:00 +15°C° 0.5 mm 4 mps 733 mmHg 92%
14:00 +15°C° 0.5 mm 4 mps 733 mmHg 92%
15:00 +15°C° 0.1 mm 4 mps 733 mmHg 91%
16:00 +16°C° 0.1 mm 3 mps 733 mmHg 90%
17:00 +16°C° 0.1 mm 2 mps 733 mmHg 89%
18:00 +16°C° 0.1 mm 2 mps 733 mmHg 91%
19:00 +15°C° 0.1 mm 1 mps 733 mmHg 92%
20:00 +15°C° 0.1 mm 1 mps 733 mmHg 94%
21:00 +14°C° 0.1 mm 1 mps 733 mmHg 94%
22:00 +14°C° 0.1 mm 1 mps 733 mmHg 95%
23:00 +14°C° 0.1 mm 1 mps 733 mmHg 95%

18 July, Saturday

Time Temperature Precipitation Wind Pressure Humidity
00:00 +14°C° 0 mm 1 mps 733 mmHg 95%
01:00 +13°C° 0 mm 1 mps 733 mmHg 95%
02:00 +13°C° 0 mm 1 mps 733 mmHg 95%
03:00 +13°C° 0 mm 1 mps 733 mmHg 95%
04:00 +13°C° 0 mm 1 mps 733 mmHg 95%
05:00 +13°C° 0 mm 1 mps 733 mmHg 95%
06:00 +14°C° 0 mm 1 mps 734 mmHg 92%
07:00 +15°C° 0 mm 1 mps 734 mmHg 89%
08:00 +17°C° 0 mm 2 mps 734 mmHg 85%
09:00 +18°C° 0.1 mm 2 mps 734 mmHg 81%
10:00 +19°C° 0.1 mm 2 mps 734 mmHg 77%
11:00 +20°C° 0.1 mm 2 mps 734 mmHg 74%
12:00 +20°C° 0.3 mm 2 mps 734 mmHg 73%
13:00 +21°C° 0.3 mm 2 mps 734 mmHg 72%
14:00 +21°C° 0.3 mm 2 mps 734 mmHg 71%
15:00 +21°C° 0.6 mm 2 mps 734 mmHg 74%
16:00 +20°C° 0.6 mm 2 mps 733 mmHg 77%
17:00 +20°C° 0.6 mm 2 mps 733 mmHg 79%
18:00 +19°C° 0.4 mm 2 mps 733 mmHg 83%
19:00 +18°C° 0.4 mm 2 mps 733 mmHg 87%
20:00 +17°C° 0.4 mm 2 mps 733 mmHg 92%
21:00 +17°C° 0.2 mm 2 mps 733 mmHg 93%
22:00 +16°C° 0.2 mm 2 mps 734 mmHg 94%
23:00 +16°C° 0.2 mm 2 mps 734 mmHg 96%
Show more